| time (UTC) | temp C | wind direction | speed KPH | gust KPH | rain 1hr cm | rain 24hr cm | rain mn cm | humidity % | barometer mb |
| 20260508215908 | 16 | 244 | 4.8 | 12.9 | 0.00 | 0.00 | 0.00 | 67 | 1007.1 |
| 20260508214834 | 16 | 250 | 6.4 | 14.5 | 0.00 | 0.00 | 0.00 | 67 | 1007.1 |
| 20260508213832 | 16 | 229 | 4.8 | 14.5 | 0.00 | 0.00 | 0.00 | 64 | 1007.5 |
| 20260508212759 | 16 | 235 | 3.2 | 9.7 | 0.00 | 0.00 | 0.00 | 66 | 1007.5 |
| 20260508211726 | 16 | 232 | 4.8 | 11.3 | 0.00 | 0.00 | 0.00 | 65 | 1007.1 |
| 20260508210724 | 16 | 230 | 3.2 | 11.3 | 0.00 | 0.00 | 0.00 | 65 | 1007.5 |
| 20260508205722 | 16 | 247 | 4.8 | 11.3 | 0.00 | 0.00 | 0.00 | 63 | 1007.5 |
| 20260508204720 | 16 | 238 | 4.8 | 11.3 | 0.00 | 0.00 | 0.00 | 63 | 1007.5 |
| 20260508203720 | 16 | 251 | 3.2 | 11.3 | 0.00 | 0.00 | 0.00 | 63 | 1007.8 |
| 20260508202718 | 16 | 235 | 4.8 | 12.9 | 0.00 | 0.00 | 0.00 | 65 | 1007.8 |
| 20260508201716 | 15 | 225 | 6.4 | 12.9 | 0.00 | 0.00 | 0.00 | 67 | 1008.1 |
| 20260508200714 | 16 | 228 | 4.8 | 12.9 | 0.00 | 0.00 | 0.00 | 69 | 1008.1 |
| 20260508195713 | 16 | 229 | 6.4 | 12.9 | 0.00 | 0.00 | 0.00 | 68 | 1008.5 |
| 20260508194537 | 16 | 229 | 4.8 | 11.3 | 0.00 | 0.00 | 0.00 | 68 | 1008.5 |
| 20260508193535 | 16 | 221 | 4.8 | 17.7 | 0.00 | 0.00 | 0.00 | 67 | 1008.8 |
| 20260508192534 | 16 | 217 | 3.2 | 17.7 | 0.00 | 0.00 | 0.00 | 67 | 1008.8 |
| 20260508191500 | 17 | 228 | 4.8 | 11.3 | 0.00 | 0.00 | 0.00 | 65 | 1008.8 |
| 20260508190459 | 17 | 228 | 4.8 | 11.3 | 0.00 | 0.00 | 0.00 | 64 | 1009.1 |
| 20260508185459 | 17 | 214 | 4.8 | 11.3 | 0.00 | 0.00 | 0.00 | 60 | 1009.1 |
| 20260508184457 | 17 | 233 | 0.0 | 12.9 | 0.00 | 0.00 | 0.00 | 57 | 1009.5 |
| 20260508183456 | 17 | 236 | 3.2 | 17.7 | 0.00 | 0.00 | 0.00 | 54 | 1009.5 |
| 20260508182455 | 17 | 232 | 6.4 | 17.7 | 0.00 | 0.00 | 0.00 | 52 | 1009.5 |
| 20260508181453 | 16 | 235 | 3.2 | 14.5 | 0.00 | 0.00 | 0.00 | 53 | 1009.5 |
| 20260508180451 | 17 | 219 | 8.0 | 16.1 | 0.00 | 0.00 | 0.00 | 53 | 1009.5 |
| 20260508175449 | 17 | 220 | 8.0 | 16.1 | 0.00 | 0.00 | 0.00 | 55 | 1009.8 |
| 20260508174448 | 17 | 243 | 4.8 | 12.9 | 0.00 | 0.00 | 0.00 | 56 | 1009.8 |
| 20260508173446 | 17 | 221 | 4.8 | 12.9 | 0.00 | 0.00 | 0.00 | 60 | 1010.2 |
| 20260508172446 | 17 | 225 | 3.2 | 11.3 | 0.00 | 0.00 | 0.00 | 58 | 1010.2 |
| 20260508171445 | 16 | 229 | 3.2 | 11.3 | 0.00 | 0.00 | 0.00 | 61 | 1010.2 |
| 20260508170444 | 16 | 230 | 3.2 | 11.3 | 0.00 | 0.00 | 0.00 | 61 | 1010.5 |
| 20260508165442 | 16 | 185 | 3.2 | 12.9 | 0.00 | 0.00 | 0.00 | 62 | 1010.5 |
| 20260508164441 | 16 | 261 | 6.4 | 12.9 | 0.00 | 0.00 | 0.00 | 62 | 1010.5 |
| 20260508163439 | 16 | 255 | 0.0 | 9.7 | 0.00 | 0.00 | 0.00 | 61 | 1010.8 |
| 20260508162437 | 16 | 263 | 0.0 | 0.0 | 0.00 | 0.00 | 0.00 | 66 | 1010.8 |
| 20260508161435 | 15 | 265 | 0.0 | 0.0 | 0.00 | 0.00 | 0.00 | 68 | 1010.8 |
| 20260508160434 | 15 | 264 | 0.0 | 9.7 | 0.00 | 0.00 | 0.00 | 72 | 1011.2 |
| 20260508155401 | 15 | 267 | 3.2 | 9.7 | 0.00 | 0.00 | 0.00 | 70 | 1011.2 |
| 20260508154400 | 14 | 271 | 3.2 | 9.7 | 0.00 | 0.00 | 0.00 | 73 | 1011.5 |
| 20260508153358 | 13 | 258 | 3.2 | 8.0 | 0.00 | 0.00 | 0.00 | 73 | 1011.5 |
| 20260508152356 | 13 | 227 | 3.2 | 8.0 | 0.00 | 0.00 | 0.00 | 75 | 1011.5 |
| 20260508151355 | 13 | 225 | 1.6 | 8.0 | 0.00 | 0.00 | 0.00 | 75 | 1011.5 |
| 20260508150353 | 12 | 224 | 3.2 | 8.0 | 0.00 | 0.00 | 0.00 | 78 | 1011.5 |
| 20260508145352 | 12 | 223 | 3.2 | 6.4 | 0.00 | 0.00 | 0.00 | 78 | 1011.5 |
| 20260508144352 | 12 | 240 | 3.2 | 4.8 | 0.00 | 0.00 | 0.00 | 79 | 1011.5 |
| 20260508143248 | 12 | 217 | 0.0 | 0.0 | 0.00 | 0.00 | 0.00 | 79 | 1011.5 |
| 20260508142247 | 11 | 262 | 0.0 | 0.0 | 0.00 | 0.00 | 0.00 | 79 | 1011.5 |
| 20260508141245 | 11 | 255 | 0.0 | 0.0 | 0.00 | 0.00 | 0.00 | 80 | 1011.5 |
| 20260508140244 | 11 | 264 | 0.0 | 0.0 | 0.00 | 0.00 | 0.00 | 81 | 1011.5 |
| 20260508135211 | 11 | 288 | 0.0 | 0.0 | 0.00 | 0.00 | 0.00 | 82 | 1011.5 |
| 20260508134209 | 11 | 254 | 0.0 | 0.0 | 0.00 | 0.00 | 0.00 | 82 | 1011.5 |
| 20260508133208 | 11 | 269 | 0.0 | 6.4 | 0.00 | 0.00 | 0.00 | 81 | 1011.5 |
| 20260508132206 | 11 | 252 | 0.0 | 6.4 | 0.00 | 0.00 | 0.00 | 81 | 1011.5 |
| 20260508131204 | 10 | 259 | 0.0 | 0.0 | 0.00 | 0.00 | 0.00 | 84 | 1011.5 |
| 20260508130203 | 10 | 246 | 0.0 | 0.0 | 0.00 | 0.00 | 0.00 | 84 | 1011.9 |
| 20260508125130 | 10 | 255 | 0.0 | 0.0 | 0.00 | 0.00 | 0.00 | 86 | 1011.9 |
| 20260508124128 | 9 | 288 | 0.0 | 4.8 | 0.00 | 0.00 | 0.00 | 89 | 1011.9 |
| 20260508123127 | 8 | 240 | 0.0 | 6.4 | 0.00 | 0.00 | 0.00 | 89 | 1011.9 |
| 20260508122125 | 8 | 255 | 3.2 | 6.4 | 0.00 | 0.00 | 0.00 | 91 | 1011.9 |
| 20260508121123 | 7 | 247 | 0.0 | 0.0 | 0.00 | 0.00 | 0.00 | 92 | 1011.9 |
| 20260508120122 | 7 | 269 | 0.0 | 0.0 | 0.00 | 0.00 | 0.00 | 93 | 1011.5 |
| 20260508115121 | 7 | 231 | 0.0 | 0.0 | 0.00 | 0.00 | 0.00 | 93 | 1011.5 |
| 20260508114119 | 6 | 253 | 0.0 | 0.0 | 0.00 | 0.00 | 0.00 | 93 | 1011.5 |
| 20260508113046 | 6 | 253 | 0.0 | 0.0 | 0.00 | 0.00 | 0.00 | 93 | 1011.5 |
| 20260508112044 | 6 | 253 | 0.0 | 0.0 | 0.00 | 0.00 | 0.00 | 93 | 1011.2 |
| 20260508111043 | 6 | 252 | 0.0 | 0.0 | 0.00 | 0.00 | 0.00 | 93 | 1011.2 |
| 20260508110010 | 6 | 252 | 0.0 | 0.0 | 0.00 | 0.00 | 0.00 | 92 | 1010.8 |
| 20260508105007 | 6 | 252 | 0.0 | 0.0 | 0.00 | 0.00 | 0.00 | 93 | 1010.8 |
| 20260508104006 | 6 | 252 | 0.0 | 0.0 | 0.00 | 0.00 | 0.00 | 93 | 1010.8 |
| 20260508103005 | 6 | 252 | 0.0 | 0.0 | 0.00 | 0.00 | 0.00 | 93 | 1010.8 |
| 20260508102003 | 6 | 252 | 0.0 | 0.0 | 0.00 | 0.00 | 0.00 | 93 | 1010.8 |
| 20260508100930 | 6 | 252 | 0.0 | 0.0 | 0.00 | 0.00 | 0.00 | 93 | 1010.8 |
| 20260508095928 | 6 | 245 | 0.0 | 0.0 | 0.00 | 0.00 | 0.00 | 93 | 1010.8 |
| 20260508094928 | 6 | 245 | 0.0 | 0.0 | 0.00 | 0.00 | 0.00 | 93 | 1010.8 |
| 20260508093926 | 6 | 249 | 0.0 | 0.0 | 0.00 | 0.00 | 0.00 | 93 | 1010.8 |
| 20260508092853 | 5 | 249 | 0.0 | 0.0 | 0.00 | 0.00 | 0.00 | 93 | 1010.8 |
| 20260508091852 | 5 | 249 | 0.0 | 0.0 | 0.00 | 0.00 | 0.00 | 93 | 1010.8 |
| 20260508090851 | 5 | 249 | 0.0 | 0.0 | 0.00 | 0.00 | 0.00 | 93 | 1010.8 |
| 20260508085849 | 5 | 249 | 0.0 | 0.0 | 0.00 | 0.00 | 0.00 | 93 | 1010.8 |
| 20260508084816 | 5 | 249 | 0.0 | 0.0 | 0.00 | 0.00 | 0.00 | 92 | 1010.8 |
| 20260508083816 | 5 | 249 | 0.0 | 0.0 | 0.00 | 0.00 | 0.00 | 91 | 1010.8 |
| 20260508082743 | 5 | 250 | 0.0 | 0.0 | 0.00 | 0.00 | 0.00 | 91 | 1010.8 |
| 20260508081741 | 6 | 250 | 0.0 | 0.0 | 0.00 | 0.00 | 0.00 | 91 | 1010.8 |
| 20260508080740 | 6 | 250 | 0.0 | 0.0 | 0.00 | 0.00 | 0.00 | 91 | 1010.8 |
| 20260508075739 | 6 | 250 | 0.0 | 0.0 | 0.00 | 0.00 | 0.00 | 91 | 1010.8 |
| 20260508074706 | 6 | 250 | 0.0 | 0.0 | 0.00 | 0.00 | 0.00 | 91 | 1011.2 |
| 20260508073706 | 7 | 249 | 0.0 | 0.0 | 0.00 | 0.00 | 0.00 | 92 | 1011.2 |
| 20260508072634 | 6 | 250 | 0.0 | 0.0 | 0.00 | 0.00 | 0.00 | 91 | 1011.2 |
| 20260508071633 | 7 | 250 | 0.0 | 0.0 | 0.00 | 0.00 | 0.00 | 91 | 1011.2 |
| 20260508070631 | 6 | 240 | 0.0 | 0.0 | 0.00 | 0.00 | 0.00 | 91 | 1011.2 |
| 20260508065630 | 6 | 240 | 0.0 | 0.0 | 0.00 | 0.00 | 0.00 | 91 | 1011.2 |
| 20260508064558 | 6 | 236 | 0.0 | 0.0 | 0.00 | 0.00 | 0.00 | 91 | 1011.2 |
| 20260508063556 | 6 | 217 | 0.0 | 0.0 | 0.00 | 0.00 | 0.00 | 91 | 1011.5 |
| 20260508062555 | 6 | 221 | 0.0 | 0.0 | 0.00 | 0.00 | 0.00 | 90 | 1011.2 |
| 20260508061554 | 6 | 219 | 0.0 | 0.0 | 0.00 | 0.00 | 0.00 | 89 | 1011.5 |
| 20260508060553 | 6 | 219 | 0.0 | 0.0 | 0.00 | 0.00 | 0.00 | 89 | 1011.5 |
| 20260508055551 | 6 | 219 | 0.0 | 0.0 | 0.00 | 0.00 | 0.00 | 88 | 1011.5 |
| 20260508054549 | 6 | 219 | 0.0 | 0.0 | 0.00 | 0.00 | 0.00 | 88 | 1011.5 |
| 20260508053546 | 7 | 219 | 0.0 | 0.0 | 0.00 | 0.00 | 0.00 | 87 | 1011.5 |
| 20260508052545 | 7 | 219 | 0.0 | 0.0 | 0.00 | 0.00 | 0.00 | 86 | 1011.5 |
| 20260508051543 | 7 | 219 | 0.0 | 0.0 | 0.00 | 0.00 | 0.00 | 85 | 1011.9 |
| 20260508050541 | 7 | 222 | 0.0 | 0.0 | 0.00 | 0.00 | 0.00 | 85 | 1011.9 |
| 20260508045540 | 7 | 236 | 0.0 | 0.0 | 0.00 | 0.00 | 0.00 | 84 | 1011.9 |
| 20260508044538 | 7 | 216 | 0.0 | 4.8 | 0.00 | 0.00 | 0.00 | 83 | 1011.9 |
| 20260508043536 | 8 | 231 | 3.2 | 4.8 | 0.00 | 0.00 | 0.00 | 82 | 1011.9 |
| 20260508042536 | 8 | 232 | 1.6 | 8.0 | 0.00 | 0.00 | 0.00 | 80 | 1011.9 |
| 20260508041535 | 8 | 244 | 1.6 | 8.0 | 0.00 | 0.00 | 0.00 | 80 | 1011.9 |
| 20260508040534 | 8 | 225 | 3.2 | 8.0 | 0.00 | 0.00 | 0.00 | 78 | 1011.9 |
| 20260508035532 | 8 | 232 | 3.2 | 6.4 | 0.00 | 0.00 | 0.00 | 77 | 1011.9 |
| 20260508034531 | 8 | 225 | 3.2 | 6.4 | 0.00 | 0.00 | 0.00 | 78 | 1011.9 |
| 20260508033530 | 8 | 217 | 1.6 | 4.8 | 0.00 | 0.00 | 0.00 | 77 | 1011.9 |
| 20260508032528 | 8 | 225 | 1.6 | 3.2 | 0.00 | 0.00 | 0.00 | 78 | 1011.9 |
| 20260508031526 | 8 | 217 | 0.0 | 0.0 | 0.00 | 0.00 | 0.00 | 77 | 1011.9 |
| 20260508030453 | 8 | 218 | 0.0 | 3.2 | 0.00 | 0.00 | 0.00 | 76 | 1012.2 |
| 20260508025451 | 8 | 218 | 0.0 | 3.2 | 0.00 | 0.00 | 0.00 | 76 | 1012.2 |
| 20260508024449 | 8 | 219 | 1.6 | 3.2 | 0.00 | 0.00 | 0.00 | 76 | 1012.2 |
| 20260508023447 | 8 | 249 | 1.6 | 3.2 | 0.00 | 0.00 | 0.00 | 76 | 1012.2 |
| 20260508022445 | 8 | 213 | 1.6 | 3.2 | 0.00 | 0.00 | 0.00 | 76 | 1012.2 |
| 20260508021444 | 8 | 213 | 1.6 | 3.2 | 0.00 | 0.00 | 0.00 | 75 | 1012.2 |
| 20260508020442 | 8 | 219 | 1.6 | 1.6 | 0.00 | 0.00 | 0.00 | 74 | 1012.2 |
| 20260508015441 | 8 | 224 | 0.0 | 0.0 | 0.00 | 0.00 | 0.00 | 73 | 1011.9 |
| 20260508014439 | 8 | 224 | 0.0 | 0.0 | 0.00 | 0.00 | 0.00 | 72 | 1012.2 |
| 20260508013437 | 8 | 224 | 0.0 | 0.0 | 0.00 | 0.00 | 0.00 | 72 | 1011.9 |
| 20260508012436 | 9 | 224 | 0.0 | 4.8 | 0.00 | 0.00 | 0.00 | 70 | 1011.9 |
| 20260508011434 | 9 | 225 | 1.6 | 4.8 | 0.00 | 0.00 | 0.00 | 69 | 1011.9 |
| 20260508010430 | 9 | 223 | 3.2 | 8.0 | 0.00 | 0.00 | 0.00 | 69 | 1011.9 |
| 20260508005357 | 10 | 222 | 3.2 | 8.0 | 0.00 | 0.00 | 0.00 | 67 | 1011.5 |
| 20260508004324 | 10 | 229 | 3.2 | 9.7 | 0.00 | 0.00 | 0.00 | 65 | 1011.5 |
| 20260508003322 | 10 | 227 | 3.2 | 12.9 | 0.00 | 0.00 | 0.00 | 63 | 1011.5 |
| 20260508002320 | 10 | 230 | 3.2 | 17.7 | 0.00 | 0.00 | 0.00 | 61 | 1011.5 |
| 20260508001317 | 11 | 239 | 4.8 | 17.7 | 0.00 | 0.00 | 0.00 | 59 | 1011.5 |
| 20260508000316 | 11 | 247 | 8.0 | 17.7 | 0.00 | 0.00 | 0.00 | 55 | 1011.5 |
| 20260507235314 | 12 | 239 | 8.0 | 22.5 | 0.00 | 0.00 | 0.00 | 52 | 1011.5 |
| 20260507234308 | 12 | 235 | 8.0 | 22.5 | 0.00 | 0.00 | 0.00 | 50 | 1011.5 |
| 20260507233306 | 13 | 252 | 4.8 | 16.1 | 0.00 | 0.00 | 0.00 | 47 | 1011.5 |
| 20260507232306 | 13 | 244 | 3.2 | 16.1 | 0.00 | 0.00 | 0.00 | 46 | 1011.5 |
| 20260507231303 | 13 | 248 | 4.8 | 22.5 | 0.00 | 0.00 | 0.00 | 46 | 1011.5 |
| 20260507230302 | 13 | 267 | 6.4 | 22.5 | 0.00 | 0.00 | 0.00 | 44 | 1011.5 |
| 20260507225300 | 13 | 257 | 8.0 | 20.9 | 0.00 | 0.00 | 0.00 | 43 | 1011.5 |
| 20260507224258 | 13 | 267 | 3.2 | 19.3 | 0.00 | 0.00 | 0.00 | 42 | 1011.5 |
| 20260507223256 | 13 | 253 | 9.7 | 19.3 | 0.00 | 0.00 | 0.00 | 40 | 1011.5 |
| 20260507222223 | 13 | 268 | 6.4 | 17.7 | 0.00 | 0.00 | 0.00 | 39 | 1011.5 |
| 20260507221221 | 14 | 281 | 4.8 | 12.9 | 0.00 | 0.00 | 0.00 | 39 | 1011.5 |